This is the latest recevied weather packets stored in our database for station/object EA1IDU-11. If no packets are shown the sender has not sent any weather packets the latest 10 day(s).
| Time | Temp. | Humidity | Pressure | Rain* | Wind** | Luminosity | Snow |
|---|---|---|---|---|---|---|---|
| 1777413419 | 15.56° C | 58% | 1019.7 hPa | - | - | - | - |
| 1777412518 | 15.56° C | 58% | 1019.5 hPa | - | - | - | - |
| 1777411618 | 15.56° C | 58% | 1019.4 hPa | - | - | - | - |
| 1777410718 | 16.11° C | 58% | 1019.5 hPa | - | - | - | - |
| 1777409818 | 16.11° C | 58% | 1020 hPa | - | - | - | - |
| 1777408918 | 16.67° C | 56% | 1019.9 hPa | - | - | - | - |
| 1777408017 | 16.67° C | 56% | 1019.7 hPa | - | - | - | - |
| 1777407117 | 16.11° C | 55% | 1019.6 hPa | - | - | - | - |
| 1777406217 | 16.11° C | 54% | 1019.6 hPa | - | - | - | - |
| 1777405316 | 16.11° C | 54% | 1019.5 hPa | - | - | - | - |
| 1777404416 | 16.11° C | 52% | 1019.3 hPa | - | - | - | - |
| 1777403516 | 16.11° C | 50% | 1019.2 hPa | - | - | - | - |
| 1777402616 | 16.67° C | 49% | 1019.3 hPa | - | - | - | - |
| 1777401716 | 17.22° C | 48% | 1018.9 hPa | - | - | - | - |
| 1777400816 | 17.78° C | 46% | 1019 hPa | - | - | - | - |
| 1777399916 | 18.33° C | 46% | 1018.9 hPa | - | - | - | - |
| 1777399016 | 18.89° C | 44% | 1018.5 hPa | - | - | - | - |
| 1777398116 | 20.56° C | 42% | 1018.7 hPa | - | - | - | - |
| 1777397216 | 20.56° C | 42% | 1018.9 hPa | - | - | - | - |
| 1777396315 | 21.11° C | 41% | 1019.1 hPa | - | - | - | - |
| 1777395415 | 21.11° C | 41% | 1019.1 hPa | - | - | - | - |
| 1777394515 | 21.67° C | 40% | 1018.9 hPa | - | - | - | - |
| 1777393615 | 21.67° C | 39% | 1018.9 hPa | - | - | - | - |
| 1777392715 | 22.78° C | 38% | 1018.7 hPa | - | - | - | - |
| 1777391815 | 23.89° C | 37% | 1018.7 hPa | - | - | - | - |
* Rain since midnight (hover to see other rain measurements)
** Current wind speed in m/s (hover to see current wind gust speed)